Location: Kershaw
(34.5481°N, 80.5823°W)
Time: 15:39:42
(UTC+00:00)

Transit 4A - All Passes

Search period start: 03 October 2022 00:00
Search period end: 13 October 2022 00:00
Orbit: 869 x 974 km, 66.8° (Epoch: 03 October)

Date Brightness Start Highest point End Pass type
(mag) Time Alt. Az. Time Alt. Az. Time Alt. Az.
03 Oct - 01:41:38 10° SSE 01:46:01 20° ESE 01:50:19 10° ENE night (unlit)
03 Oct - 03:25:47 10° SW 03:31:54 56° WNW 03:37:52 10° NNE night (unlit)
03 Oct - 10:48:28 10° NNE 10:50:51 12° NE 10:53:14 10° ENE visible
03 Oct - 12:32:13 10° NNW 12:38:05 83° ENE 12:43:53 10° SSE daylight
03 Oct - 14:22:18 10° W 14:23:33 11° WSW 14:24:49 10° WSW daylight
04 Oct - 01:49:39 10° SSE 01:55:03 31° ESE 02:00:21 10° NE night (unlit)
04 Oct - 03:35:32 10° WSW 03:41:14 37° WNW 03:46:51 10° N night (unlit)
04 Oct - 10:56:29 10° N 11:00:29 19° NE 11:04:26 10° E visible
04 Oct - 12:41:31 10° NNW 12:47:16 64° WSW 12:52:58 10° SSE daylight
05 Oct - 01:58:11 10° S 02:04:08 49° ESE 02:09:59 10° NE night (unlit)
05 Oct - 03:45:39 10° WSW 03:50:41 25° NW 03:55:39 10° N night (unlit)
05 Oct - 11:05:05 10° N 11:09:59 27° NE 11:14:51 10° ESE daylight
05 Oct - 12:51:01 10° NW 12:56:23 40° WSW 13:01:44 10° S daylight
06 Oct - 02:07:05 10° SSW 02:13:18 75° ESE 02:19:24 10° NNE night (unlit)
06 Oct - 03:56:15 10° W 04:00:13 17° NW 04:04:10 10° N night (unlit)
06 Oct - 11:13:56 10° NNW 11:19:25 41° ENE 11:24:50 10° SE daylight
06 Oct - 13:00:48 10° NW 13:05:26 25° WSW 13:10:04 10° SSW daylight
07 Oct - 00:33:39 10° SE 00:36:51 15° ESE 00:40:02 10° ENE night (unlit)
07 Oct - 02:16:19 10° SSW 02:22:32 73° WNW 02:28:37 10° NNE night (unlit)
07 Oct - 04:07:45 10° WNW 04:09:52 12° NW 04:11:59 10° NNW night (unlit)
07 Oct - 11:22:56 10° NNW 11:28:44 63° ENE 11:34:28 10° SE daylight
07 Oct - 13:11:09 10° WNW 13:14:25 16° WSW 13:17:42 10° SW daylight
08 Oct - 00:41:05 10° SSE 00:45:51 23° ESE 00:50:33 10° NE visible
08 Oct - 02:25:52 10° SW 02:31:50 48° WNW 02:37:42 10° NNE night (unlit)
08 Oct - 09:47:51 10° NNE 09:50:54 14° NE 09:53:57 10° E visible
08 Oct - 11:32:08 10° NNW 11:37:58 85° WSW 11:43:47 10° SSE daylight
09 Oct - 00:49:17 10° S 00:54:55 36° ESE 01:00:25 10° NE visible
09 Oct - 02:35:44 10° WSW 02:41:14 32° NW 02:46:37 10° N visible
09 Oct - 09:56:08 10° N 10:00:29 21° NE 10:04:48 10° E visible
09 Oct - 11:41:29 10° NW 11:47:08 54° WSW 11:52:46 10° S daylight
10 Oct - 00:57:58 10° S 01:04:02 57° ESE 01:09:59 10° NE visible
10 Oct - 02:45:59 10° WSW 02:50:42 22° NW 02:55:20 10° N visible
10 Oct - 10:04:50 10° N 10:09:58 31° NE 10:15:04 10° ESE visible
10 Oct - 11:51:04 10° NW 11:56:14 34° WSW 12:01:23 10° S daylight
11 Oct - 01:06:59 10° SSW 01:13:13 86° ESE 01:19:19 10° NNE visible
11 Oct - 02:56:49 10° W 03:00:16 15° NW 03:03:42 10° NNW visible
11 Oct - 10:13:44 10° NNW 10:19:21 47° ENE 10:24:55 10° SE visible
11 Oct - 12:00:59 10° WNW 12:05:16 21° WSW 12:09:32 10° SSW daylight
11 Oct - 23:32:50 10° SE 23:36:42 17° ESE 23:40:30 10° ENE visible
12 Oct - 01:16:19 10° SW 01:22:28 63° WNW 01:28:29 10° NNE visible
12 Oct - 03:09:32 10° NW 03:09:57 10° NW 03:10:22 10° NW visible
12 Oct - 08:39:50 10° NNE 08:41:17 11° NE 08:42:44 10° ENE visible
12 Oct - 10:22:49 10° NNW 10:28:38 73° ENE 10:34:26 10° SSE visible
12 Oct - 12:11:45 10° WNW 12:14:14 13° WSW 12:16:43 10° SW daylight
12 Oct - 23:40:36 10° SSE 23:45:42 27° ESE 23:50:43 10° NE visible
